Weather History for Silver City, NM

Change the Weather History Date:

Sunday, December 2, 2012

  Actual Average (KDMN) Record (KDMN)
Temperature  
Mean Temperature 52 °F 44 °F  
Max Temperature 68 °F 60 °F 74 °F (2012)
Min Temperature 35 °F 29 °F 19 °F (1948)
Degree Days  
Heating Degree Days 14    
Growing Degree Days 2 (Base 50)    
Moisture  
Dew Point 14 °F    
Average Humidity 25    
Maximum Humidity 35    
Minimum Humidity 13    
Precipitation  
Precipitation 0.00 in 0.03 in 0.39 in (2002)
Month to date precipitation 0.06  
Year to date precipitation 10.72  
Sea Level Pressure  
Sea Level Pressure 30.18 in    
Wind  
Wind Speed 10 mph (NW)    
Max Wind Speed 20 mph    
Max Gust Speed 26 mph    
Visibility 10 miles    
Events      
T = Trace of Precipitation, MM = Missing Value Source: NWS Daily Summary

Daily Weather History Graph

Daily Weather History Graph

Search for Another Location

Airport:

Trip Planner

Search our weather history database for the weather conditions in past years. The results will help you decide how hot, cold, wet, or windy it might be!

Date:

Astronomy

Dec. 02, 2012 Rise Set
Actual Time 6:58 AM MST 5:06 PM MST
Civil Twilight 6:31 AM MST 5:33 PM MST
Nautical Twilight 6:00 AM MST 6:03 PM MST
Astronomical Twilight 5:30 AM MST 6:33 PM MST
Moon 8:51 PM MST (12/2) 9:54 AM MST (12/2)
Length of Visible Light 11h 02m
Length of Day
10h 08m
Waning Gibbous, 85% of the Moon is Illuminated
Dec 2
Waning Gibbous
Dec 6
Last Quarter
Dec 13
New
Dec 19
First Quarter
Dec 28
Full

Hourly Weather History & Observations

Time (MST) Temp. Windchill Dew Point Humidity Pressure Visibility Wind Dir Wind Speed Gust Speed Precip Events Conditions
12:15 AM 42.8 °F 36.2 °F 14.0 °F 31% 30.21 in 10.0 mi North 12.7 mph - N/A   Clear
12:55 AM 44.6 °F 38.8 °F 12.2 °F 27% 30.20 in 10.0 mi North 11.5 mph - N/A   Clear
1:15 AM 41.0 °F 35.2 °F 12.2 °F 31% 30.20 in 10.0 mi NNW 9.2 mph - N/A   Clear
1:35 AM 39.2 °F - 10.4 °F 31% 30.21 in 10.0 mi Calm Calm - N/A   Clear
1:55 AM 39.2 °F 35.9 °F 12.2 °F 33% 30.21 in 10.0 mi NW 4.6 mph - N/A   Clear
2:15 AM 39.2 °F 32.5 °F 12.2 °F 33% 30.20 in 10.0 mi NNW 10.4 mph - N/A   Clear
2:35 AM 39.2 °F 32.5 °F 12.2 °F 33% 30.20 in 10.0 mi NNW 10.4 mph - N/A   Clear
2:55 AM 37.4 °F 29.8 °F 10.4 °F 33% 30.19 in 10.0 mi NNW 11.5 mph - N/A   Clear
3:15 AM 39.2 °F 32.5 °F 10.4 °F 31% 30.19 in 10.0 mi NNW 10.4 mph - N/A   Clear
3:55 AM 39.2 °F 32.5 °F 10.4 °F 31% 30.19 in 10.0 mi NNW 10.4 mph - N/A   Clear
4:15 AM 39.2 °F 32.5 °F 10.4 °F 31% 30.19 in 10.0 mi North 10.4 mph - N/A   Clear
4:35 AM 39.2 °F 32.0 °F 10.4 °F 31% 30.18 in 10.0 mi North 11.5 mph - N/A   Clear
5:15 AM 35.6 °F 28.6 °F 8.6 °F 33% 30.19 in 10.0 mi NNW 9.2 mph - N/A   Clear
5:55 AM 35.6 °F 28.0 °F 10.4 °F 35% 30.20 in 10.0 mi North 10.4 mph - N/A   Clear
6:15 AM 39.2 °F 33.0 °F 10.4 °F 31% 30.20 in 10.0 mi North 9.2 mph - N/A   Clear
6:35 AM 37.4 °F 30.3 °F 10.4 °F 33% 30.20 in 10.0 mi North 10.4 mph - N/A   Clear
6:55 AM 37.4 °F 29.8 °F 10.4 °F 33% 30.21 in 10.0 mi North 11.5 mph - N/A   Clear
7:15 AM 39.2 °F 32.0 °F 12.2 °F 33% 30.21 in 10.0 mi NNW 11.5 mph - N/A   Clear
7:35 AM 42.8 °F 37.5 °F 14.0 °F 31% 30.21 in 10.0 mi NNW 9.2 mph - N/A   Clear
7:55 AM 44.6 °F 41.4 °F 14.0 °F 29% 30.22 in 10.0 mi NW 5.8 mph - N/A   Clear
8:15 AM 48.2 °F - 14.0 °F 25% 30.22 in 10.0 mi NW 4.6 mph - N/A   Clear
8:35 AM 51.8 °F - 15.8 °F 24% 30.23 in 10.0 mi West 4.6 mph - N/A   Clear
8:55 AM 53.6 °F - 15.8 °F 22% 30.23 in 10.0 mi West 4.6 mph - N/A   Clear
9:15 AM 57.2 °F - 15.8 °F 20% 30.23 in 10.0 mi WNW 4.6 mph - N/A   Clear
9:35 AM 59.0 °F - 15.8 °F 19% 30.23 in 10.0 mi Calm Calm - N/A   Clear
9:55 AM 60.8 °F - 15.8 °F 17% 30.23 in 10.0 mi Calm Calm - N/A   Clear
10:15 AM 62.6 °F - 17.6 °F 18% 30.23 in 10.0 mi SSW 4.6 mph - N/A   Clear
10:55 AM 64.4 °F - 19.4 °F 18% 30.22 in 10.0 mi Calm Calm - N/A   Clear
11:15 AM 64.4 °F - 21.2 °F 19% 30.21 in 10.0 mi SSE 9.2 mph - N/A   Clear
11:35 AM 66.2 °F - 23.0 °F 19% 30.20 in 10.0 mi WSW 11.5 mph - N/A   Clear
11:55 AM 66.2 °F - 23.0 °F 19% 30.19 in 10.0 mi South 12.7 mph 16.1 mph N/A   Clear
12:15 PM 68.0 °F - 19.4 °F 16% 30.18 in 10.0 mi WSW 10.4 mph - N/A   Clear
12:35 PM 68.0 °F - 15.8 °F 13% 30.17 in 10.0 mi WSW 10.4 mph 18.4 mph N/A   Clear
12:55 PM 68.0 °F - 15.8 °F 13% 30.16 in 10.0 mi WSW 13.8 mph 20.7 mph N/A   Clear
1:15 PM 68.0 °F - 15.8 °F 13% 30.16 in 10.0 mi WSW 15.0 mph 20.7 mph N/A   Clear
1:35 PM 68.0 °F - 17.6 °F 15% 30.15 in 10.0 mi West 16.1 mph 26.5 mph N/A   Clear
1:55 PM 68.0 °F - 17.6 °F 15% 30.15 in 10.0 mi West 12.7 mph 18.4 mph N/A   Clear
2:15 PM 68.0 °F - 15.8 °F 13% 30.14 in 10.0 mi West 15.0 mph 23.0 mph N/A   Clear
2:35 PM 68.0 °F - 15.8 °F 13% 30.14 in 10.0 mi West 19.6 mph 23.0 mph N/A   Clear
2:55 PM 66.2 °F - 15.8 °F 14% 30.14 in 10.0 mi West 15.0 mph 23.0 mph N/A   Clear
3:15 PM 66.2 °F - 14.0 °F 13% 30.14 in 10.0 mi West 12.7 mph 19.6 mph N/A   Clear
3:35 PM 66.2 °F - 14.0 °F 13% 30.14 in 10.0 mi WNW 15.0 mph - N/A   Clear
3:55 PM 66.2 °F - 14.0 °F 13% 30.14 in 10.0 mi West 15.0 mph - N/A   Clear
4:15 PM 64.4 °F - 14.0 °F 14% 30.14 in 10.0 mi West 13.8 mph - N/A   Clear
4:35 PM 64.4 °F - 12.2 °F 13% 30.15 in 10.0 mi WNW 13.8 mph - N/A   Clear
5:15 PM 59.0 °F - 12.2 °F 16% 30.15 in 10.0 mi WNW 10.4 mph - N/A   Clear
5:35 PM 53.6 °F - 12.2 °F 19% 30.15 in 10.0 mi NW 6.9 mph - N/A   Clear
6:15 PM 50.0 °F - 14.0 °F 24% 30.15 in 10.0 mi North 10.4 mph - N/A   Clear
6:35 PM 50.0 °F - 14.0 °F 24% 30.15 in 10.0 mi NNW 12.7 mph - N/A   Clear
6:55 PM 46.4 °F 41.5 °F 14.0 °F 27% 30.15 in 10.0 mi NNW 10.4 mph - N/A   Clear
7:15 PM 42.8 °F 39.3 °F 12.2 °F 29% 30.15 in 10.0 mi NW 5.8 mph - N/A   Clear
7:35 PM 46.4 °F 42.4 °F 12.2 °F 25% 30.16 in 10.0 mi NW 8.1 mph - N/A   Clear
7:55 PM 41.0 °F 35.2 °F 10.4 °F 29% 30.16 in 10.0 mi NNW 9.2 mph - N/A   Clear
8:15 PM 42.8 °F 38.6 °F 12.2 °F 29% 30.16 in 10.0 mi NNW 6.9 mph - N/A   Clear
8:35 PM 44.6 °F 42.2 °F 12.2 °F 27% 30.16 in 10.0 mi NW 4.6 mph - N/A   Clear
8:55 PM 41.0 °F 34.3 °F 10.4 °F 29% 30.16 in 10.0 mi NNW 11.5 mph - N/A   Clear
9:15 PM 41.0 °F 35.8 °F 12.2 °F 31% 30.17 in 10.0 mi NW 8.1 mph - N/A   Clear
9:55 PM 42.8 °F 38.0 °F 14.0 °F 31% 30.17 in 10.0 mi NW 8.1 mph - N/A   Clear
10:15 PM 39.2 °F 32.5 °F 12.2 °F 33% 30.17 in 10.0 mi NNW 10.4 mph - N/A   Clear
10:35 PM 42.8 °F 36.6 °F 14.0 °F 31% 30.17 in 10.0 mi NNW 11.5 mph - N/A   Clear
10:55 PM 44.6 °F 38.4 °F 14.0 °F 29% 30.17 in 10.0 mi NNW 12.7 mph - N/A   Clear
11:15 PM 44.6 °F 38.4 °F 14.0 °F 29% 30.17 in 10.0 mi NNW 12.7 mph - N/A   Clear
11:35 PM 44.6 °F 39.2 °F 14.0 °F 29% 30.17 in 10.0 mi NNW 10.4 mph - N/A   Clear
11:55 PM 41.0 °F 35.2 °F 14.0 °F 33% 30.16 in 10.0 mi North 9.2 mph - N/A   Clear